Content
SEND FEEDBACK

Daily
Averages
Monthly
Summary
United States of America

WARSAW, NORTH CAROLINA


Home > North America > United States > North Carolina
Elevation: 108 feet     Latitude: 35 00N     Longitude: 078 02W

WEATHER
 
SELECT A DAY
Number of Records: 69,538;   Date Range: 3/18/98 - 7/27/14
 
SHARE

PRINT THIS DATA

[ ← Previous Day ]
WEATHER ALMANAC - JANUARY 3, 2013
[ Next Day → ]
[ °C ]   °F
Weather ElementAverageHighLow
Temperature38.2 °F41.9 °F (4:35 pm)29.3 °F (11:35 pm)
Dewpoint34.5 °F38.3 °F (12:35 am)29.3 °F (11:35 pm)
Humidity87.2 %100 % (9:35 pm)65 % (3:15 pm)
Barometer30.21 in30.28 in (9:55 pm)30.16 in (1:35 am)
Wind Speed1.4 mph6.9 mph (11:15 am)
Weather ElementAverage
Visibility7 mi
Wind DirectionNE (41.1 °)

Weather ElementTotal
Precipitation---
Heating Degree Days29.4 (Base 65)
Averaged from 70 records on January 3, 2013
WEATHER CONDITIONS BREAKOUT
WIND DIRECTION BREAKOUT
WEATHER BY HOUR - JANUARY 3, 2013
[ °C ]   °F
Local TimeTemperatureDewpointHumidityBarometerVisibilityWind DirectionWind SpeedGust SpeedPrecipitationEventsConditions
12:35 AM40.1 °F38.3 °F93 %30.19 in7.0 miCalmClear
12:55 AM40.1 °F38.3 °F93 %30.19 in5.0 miCalmClear
1:15 AM39.6 °F38.3 °F95 %30.18 in5.0 miCalmClear
1:35 AM39.7 °F37.9 °F93 %30.16 in5.0 miEast (90°)3.5 mphClear
1:55 AM39.7 °F37.9 °F93 %30.17 in7.0 miEast (100°)3.5 mphClear
2:15 AM39.7 °F37.9 °F93 %30.16 in7.0 miCalmClear
2:35 AM39.7 °F37.8 °F93 %30.17 in5.0 miCalmClear
2:55 AM39.7 °F37.8 °F93 %30.18 in5.0 miCalmClear
3:15 AM39.7 °F37.6 °F92 %30.17 in5.0 miCalmScattered Clouds
3:35 AM39.7 °F37.6 °F92 %30.17 in5.0 miCalmMostly Cloudy
3:55 AM39.6 °F37.4 °F92 %30.16 in5.0 miCalmScattered Clouds
4:15 AM39.6 °F37.4 °F92 %30.16 in7.0 miCalmClear
4:35 AM39.6 °F37.0 °F91 %30.16 in7.0 miCalmScattered Clouds
4:55 AM39.6 °F36.9 °F90 %30.18 in7.0 miNNE (30°)3.5 mphMostly Cloudy
5:15 AM39.4 °F36.9 °F91 %30.17 in7.0 miCalmScattered Clouds
5:35 AM39.4 °F36.9 °F91 %30.18 in7.0 miENE (60°)3.5 mphMostly Cloudy
5:55 AM39.4 °F36.5 °F89 %30.18 in7.0 miNNE (20°)3.5 mphMostly Cloudy
6:15 AM39.4 °F35.8 °F87 %30.20 in7.0 miNE (50°)3.5 mphOvercast
6:35 AM39.2 °F35.8 °F88 %30.18 in7.0 miEast (80°)3.5 mphRainLight Rain
6:55 AM38.7 °F36.3 °F91 %30.19 in5.0 miEast (100°)3.5 mphLight Drizzle
7:15 AM38.5 °F36.5 °F93 %30.20 in5.0 miCalmLight Drizzle
7:35 AM38.3 °F36.5 °F93 %30.20 in5.0 miCalmRainLight Rain
7:55 AM38.3 °F36.7 °F94 %30.20 in4.0 miCalmMostly Cloudy
8:35 AM38.3 °F36.3 °F93 %30.20 in5.0 miCalmScattered Clouds
8:55 AM38.5 °F36.5 °F93 %30.21 in4.0 miNE (50°)3.5 mphLight Drizzle
9:15 AM38.5 °F36.1 °F91 %30.22 in5.0 miNNE (30°)3.5 mphLight Drizzle
9:35 AM38.5 °F36.0 °F91 %30.23 in5.0 miCalmRainLight Rain
9:55 AM38.7 °F35.8 °F89 %30.24 in7.0 miENE (60°)3.5 mphLight Drizzle
10:15 AM38.8 °F35.4 °F88 %30.25 in7.0 miNE (40°)4.6 mphOvercast
10:35 AM39.2 °F35.8 °F88 %30.23 in7.0 miEast (90°)4.6 mphOvercast
10:55 AM39.2 °F35.1 °F85 %30.23 in10.0 miEast (90°)4.6 mphOvercast
11:15 AM39.6 °F34.3 °F82 %30.22 in10.0 miEast (80°)6.9 mphOvercast
11:35 AM39.6 °F33.8 °F80 %30.21 in10.0 miENE (70°)4.6 mphOvercast
11:55 AM39.7 °F34.2 °F80 %30.20 in10.0 miNNE (30°)3.5 mphOvercast
12:15 PM39.9 °F33.4 °F78 %30.20 in10.0 miCalmOvercast
12:35 PM40.3 °F33.1 °F75 %30.18 in10.0 miENE (70°)3.5 mphOvercast
12:55 PM40.6 °F33.6 °F76 %30.18 in10.0 miNorth (10°)6.9 mphOvercast
1:15 PM40.5 °F32.2 °F72 %30.18 in10.0 miCalmOvercast
1:35 PM41.0 °F32.7 °F72 %30.17 in10.0 miCalmOvercast
1:55 PM41.0 °F32.0 °F70 %30.17 in10.0 miNorth (360°)4.6 mphOvercast
2:15 PM41.0 °F31.3 °F68 %30.16 in10.0 miCalmOvercast
2:35 PM41.0 °F31.8 °F70 %30.17 in10.0 miCalmOvercast
2:55 PM41.2 °F31.8 °F69 %30.17 in10.0 miCalmOvercast
3:15 PM41.2 °F30.4 °F65 %30.17 in10.0 miCalmOvercast
3:35 PM41.5 °F30.4 °F65 %30.18 in10.0 miCalmOvercast
3:55 PM41.5 °F31.3 °F67 %30.18 in10.0 miCalmOvercast
4:15 PM41.5 °F31.8 °F68 %30.20 in10.0 miNNW (340°)3.5 mphOvercast
4:35 PM41.9 °F32.2 °F68 %30.20 in10.0 miNNW (330°)5.8 mphOvercast
4:55 PM41.5 °F32.2 °F69 %30.21 in10.0 miNorth (350°)4.6 mphOvercast
5:15 PM41.2 °F32.0 °F70 %30.21 in10.0 miNorth (350°)3.5 mphOvercast
5:35 PM40.5 °F32.7 °F74 %30.21 in10.0 miCalmOvercast
5:55 PM39.2 °F34.3 °F83 %30.22 in10.0 miCalmScattered Clouds
6:15 PM37.9 °F35.6 °F91 %30.24 in10.0 miCalmScattered Clouds
6:35 PM37.6 °F35.8 °F93 %30.24 in10.0 miCalmMostly Cloudy
6:55 PM38.8 °F34.5 °F84 %30.25 in10.0 miCalmScattered Clouds
7:15 PM36.7 °F35.4 °F95 %30.24 in7.0 miCalmScattered Clouds
7:35 PM36.1 °F35.1 °F96 %30.25 in7.0 miCalmScattered Clouds
7:55 PM35.6 °F34.9 °F97 %30.25 in5.0 miCalmClear
8:15 PM35.1 °F34.7 °F99 %30.25 in5.0 miCalmClear
8:35 PM34.7 °F34.0 °F97 %30.25 in5.0 miCalmClear
8:55 PM34.0 °F33.8 °F99 %30.26 in5.0 miCalmClear
9:15 PM33.1 °F32.9 °F99 %30.26 in3.0 miCalmClear
9:35 PM32.0 °F32.0 °F100 %30.26 in3.0 miCalmClear
9:55 PM32.0 °F32.0 °F100 %30.28 in4.0 miCalmClear
10:15 PM30.9 °F30.9 °F100 %30.27 in3.0 miCalmClear
10:35 PM30.6 °F30.6 °F100 %30.28 in3.0 miCalmClear
10:55 PM29.8 °F29.8 °F100 %30.28 in2.5 miCalmClear
11:15 PM29.7 °F29.7 °F100 %30.28 in2.5 miCalmClear
11:35 PM29.3 °F29.3 °F100 %30.28 in3.0 miCalmClear
11:55 PM29.3 °F29.3 °F100 %30.27 in3.0 miCalmClear
Hourly data recorded from KDPL, located miles away from Warsaw, North Carolina







STORIES FROM OUR PARTNERS